| time (UTC) | temp F | wind direction | speed knots | gust knots | rain 1hr in | rain 24hr in | rain mn in | humidity % | barometer mb |
| 20260504151130 | 56 | 315 | 5.2 | 7.0 | 0.00 | 1.29 | 0.00 | 41 | 1007.0 |
| 20260504150617 | 57 | 315 | 0.9 | 2.6 | 0.00 | 1.29 | 0.00 | 41 | 1007.0 |
| 20260504141129 | 57 | 315 | 1.7 | 2.6 | 0.00 | 1.92 | 1.29 | 42 | 1007.0 |
| 20260504140616 | 57 | 270 | 0.0 | 1.7 | 0.00 | 1.92 | 1.29 | 41 | 1007.0 |
| 20260504130616 | 58 | 270 | 0.0 | 4.3 | 0.00 | 2.29 | 1.29 | 39 | 1006.0 |
| 20260504110618 | 60 | 310 | 5.2 | 5.2 | 0.00 | 2.41 | 1.29 | 36 | 1004.0 |
| 20260504081132 | 63 | 270 | 0.0 | 1.7 | 0.00 | 2.79 | 1.29 | 39 | 1001.0 |
| 20260504080617 | 63 | 225 | 0.0 | 1.7 | 0.00 | 2.79 | 1.29 | 38 | 1000.0 |
| 20260504050617 | 71 | 257 | 5.2 | 7.0 | 0.00 | 2.83 | 1.29 | 24 | 997.0 |
| 20260504045633 | 71 | 282 | 6.1 | 7.0 | 0.00 | 2.83 | 1.29 | 24 | 997.0 |
| 20260504043617 | 70 | 291 | 5.2 | 8.7 | 0.00 | 2.83 | 1.29 | 25 | 997.0 |
| 20260504042631 | 70 | 263 | 5.2 | 13.0 | 0.00 | 2.83 | 1.29 | 25 | 997.0 |
| 20260504041130 | 70 | 204 | 6.1 | 7.0 | 0.00 | 2.83 | 1.29 | 26 | 997.0 |
| 20260504040618 | 69 | 245 | 5.2 | 6.1 | 0.00 | 2.83 | 1.29 | 26 | 997.0 |
| 20260504035631 | 69 | 251 | 4.3 | 7.0 | 0.00 | 2.83 | 1.29 | 27 | 997.0 |
| 20260504034132 | 69 | 206 | 2.6 | 5.2 | 0.00 | 2.83 | 1.29 | 27 | 997.0 |
| 20260504033617 | 68 | 183 | 2.6 | 5.2 | 0.00 | 2.83 | 1.29 | 27 | 997.0 |
| 20260504032631 | 69 | 162 | 4.3 | 7.0 | 0.00 | 2.83 | 1.29 | 26 | 997.0 |
| 20260504031132 | 71 | 191 | 5.2 | 7.0 | 0.00 | 2.83 | 1.29 | 25 | 996.0 |
| 20260504030617 | 70 | 279 | 7.8 | 13.0 | 0.00 | 2.83 | 1.29 | 24 | 997.0 |
| 20260504025632 | 70 | 209 | 5.2 | 7.0 | 0.00 | 2.83 | 1.29 | 25 | 997.0 |
| 20260504024132 | 70 | 242 | 2.6 | 7.8 | 0.00 | 2.83 | 1.29 | 27 | 996.0 |
| 20260504023616 | 70 | 184 | 2.6 | 2.6 | 0.00 | 2.83 | 1.29 | 27 | 996.0 |
| 20260504022631 | 70 | 193 | 4.3 | 5.2 | 0.00 | 2.83 | 1.29 | 28 | 996.0 |
| 20260504021132 | 70 | 191 | 4.3 | 5.2 | 0.00 | 2.83 | 1.29 | 28 | 996.0 |
| 20260504020617 | 70 | 195 | 2.6 | 5.2 | 0.00 | 2.83 | 1.29 | 29 | 996.0 |
| 20260504015632 | 70 | 91 | 5.2 | 7.8 | 0.00 | 2.83 | 1.29 | 28 | 996.0 |
| 20260504014132 | 70 | 275 | 4.3 | 5.2 | 0.00 | 2.83 | 1.29 | 32 | 996.0 |
| 20260504013617 | 69 | 198 | 2.6 | 5.2 | 0.00 | 2.83 | 1.29 | 32 | 996.0 |
| 20260504012632 | 69 | 291 | 4.3 | 7.0 | 0.00 | 2.83 | 1.29 | 33 | 996.0 |
| 20260504011132 | 69 | 253 | 2.6 | 7.0 | 0.00 | 2.83 | 1.29 | 35 | 996.0 |
| 20260504010616 | 69 | 234 | 2.6 | 2.6 | 0.00 | 2.83 | 1.29 | 35 | 996.0 |
| 20260504005631 | 69 | 193 | 4.3 | 5.2 | 0.00 | 2.83 | 1.29 | 34 | 996.0 |
| 20260504004131 | 68 | 212 | 1.7 | 2.6 | 0.00 | 2.83 | 1.29 | 36 | 996.0 |
| 20260504003617 | 68 | 241 | 2.6 | 4.3 | 0.00 | 2.83 | 1.29 | 35 | 996.0 |
| 20260504002630 | 67 | 251 | 4.3 | 2.6 | 0.00 | 2.83 | 1.29 | 36 | 996.0 |
| 20260504001132 | 67 | 282 | 2.6 | 5.2 | 0.00 | 2.83 | 1.29 | 39 | 996.0 |
| 20260504000617 | 67 | 274 | 4.3 | 5.2 | 0.00 | 2.83 | 1.29 | 41 | 996.0 |
| 20260503235632 | 67 | 249 | 2.6 | 5.2 | 0.00 | 2.83 | 1.29 | 41 | 996.0 |
| 20260503234131 | 67 | 154 | 2.6 | 4.3 | 0.00 | 2.83 | 1.29 | 41 | 996.0 |
| 20260503233616 | 67 | 184 | 2.6 | 5.2 | 0.00 | 2.83 | 1.29 | 43 | 995.0 |
| 20260503232631 | 66 | 222 | 4.3 | 4.3 | 0.00 | 2.83 | 1.29 | 44 | 995.0 |
| 20260503231131 | 65 | 196 | 1.7 | 4.3 | 0.00 | 2.83 | 1.29 | 45 | 996.0 |
| 20260503230616 | 65 | 180 | 2.6 | 5.2 | 0.00 | 2.83 | 1.29 | 45 | 996.0 |
| 20260503225631 | 65 | 244 | 1.7 | 4.3 | 0.00 | 2.83 | 1.29 | 47 | 996.0 |
| 20260503224132 | 64 | 152 | 1.7 | 1.7 | 0.00 | 2.83 | 1.29 | 49 | 995.0 |
| 20260503223617 | 64 | 180 | 1.7 | 4.3 | 0.00 | 2.83 | 1.29 | 50 | 995.0 |
| 20260503222632 | 64 | 180 | 0.9 | 2.6 | 0.00 | 2.83 | 1.29 | 53 | 995.0 |
| 20260503221131 | 64 | 255 | 0.0 | 2.6 | 0.00 | 2.83 | 1.29 | 56 | 995.0 |
| 20260503220616 | 63 | 210 | 1.7 | 2.6 | 0.00 | 2.83 | 1.29 | 56 | 995.0 |
| 20260503215630 | 63 | 264 | 0.0 | 2.6 | 0.00 | 2.83 | 1.29 | 57 | 995.0 |
| 20260503214130 | 63 | 180 | 0.0 | 2.6 | 0.00 | 2.83 | 1.29 | 58 | 994.0 |
| 20260503213617 | 63 | 193 | 1.7 | 2.6 | 0.00 | 2.83 | 1.29 | 57 | 994.0 |
| 20260503212630 | 63 | 226 | 1.7 | 2.6 | 0.00 | 2.83 | 1.29 | 56 | 994.0 |
| 20260503211130 | 63 | 212 | 1.7 | 1.7 | 0.00 | 2.83 | 1.29 | 54 | 994.0 |
| 20260503210617 | 63 | 220 | 1.7 | 4.3 | 0.00 | 2.83 | 1.29 | 55 | 994.0 |
| 20260503205631 | 62 | 196 | 2.6 | 2.6 | 0.00 | 2.83 | 1.29 | 59 | 994.0 |
| 20260503204132 | 62 | 169 | 1.7 | 4.3 | 0.00 | 2.83 | 1.29 | 68 | 994.0 |
| 20260503203617 | 62 | 213 | 2.6 | 4.3 | 0.00 | 2.83 | 1.29 | 70 | 994.0 |
| 20260503202631 | 62 | 207 | 1.7 | 2.6 | 0.00 | 2.83 | 1.29 | 80 | 994.0 |
| 20260503201131 | 63 | 163 | 2.6 | 4.3 | 0.04 | 2.83 | 1.29 | 86 | 993.0 |
| 20260503200616 | 63 | 198 | 1.7 | 5.2 | 0.04 | 2.83 | 1.29 | 87 | 993.0 |
| 20260503195631 | 63 | 168 | 1.7 | 2.6 | 0.04 | 2.83 | 1.29 | 90 | 993.0 |
| 20260503194131 | 63 | 151 | 1.7 | 2.6 | 0.12 | 2.83 | 1.29 | 93 | 993.0 |
| 20260503193617 | 63 | 183 | 1.7 | 4.3 | 0.21 | 2.83 | 1.29 | 93 | 993.0 |
| 20260503192630 | 63 | 210 | 1.7 | 4.3 | 0.29 | 2.83 | 1.29 | 95 | 993.0 |
| 20260503191129 | 63 | 165 | 1.7 | 2.6 | 0.29 | 2.79 | 1.25 | 96 | 993.0 |
| 20260503190617 | 63 | 215 | 2.6 | 5.2 | 0.29 | 2.79 | 1.25 | 96 | 993.0 |
| 20260503185629 | 63 | 205 | 4.3 | 5.2 | 0.46 | 2.79 | 1.25 | 97 | 993.0 |
| 20260503184131 | 64 | 230 | 1.7 | 2.6 | 0.55 | 2.70 | 1.17 | 97 | 993.0 |
| 20260503183616 | 64 | 226 | 1.7 | 2.6 | 0.54 | 2.61 | 1.08 | 97 | 993.0 |
| 20260503182630 | 64 | 232 | 1.7 | 2.6 | 0.58 | 2.54 | 1.00 | 98 | 993.0 |
| 20260503181131 | 64 | 288 | 1.7 | 4.3 | 0.71 | 2.50 | 0.96 | 98 | 993.0 |
| 20260503180616 | 65 | 249 | 1.7 | 1.7 | 0.75 | 2.50 | 0.96 | 98 | 992.0 |
| 20260503175631 | 65 | 180 | 0.0 | 2.6 | 0.75 | 2.32 | 0.79 | 98 | 992.0 |
| 20260503174130 | 66 | 214 | 1.7 | 2.6 | 0.58 | 2.15 | 0.62 | 98 | 992.0 |
| 20260503173616 | 66 | 189 | 2.6 | 5.2 | 0.50 | 2.07 | 0.54 | 98 | 992.0 |
| 20260503172630 | 66 | 181 | 2.6 | 2.6 | 0.38 | 1.95 | 0.42 | 98 | 992.0 |
| 20260503171130 | 67 | 149 | 1.7 | 2.6 | 0.21 | 1.78 | 0.25 | 98 | 992.0 |
| 20260503170615 | 68 | 203 | 1.7 | 2.6 | 0.17 | 1.74 | 0.21 | 98 | 991.0 |